• In Germany
  • List of Countries
  • For 7 days
  • Water Temperature
  • Satellite Maps
  • Weather Map
  • Weather Widgets
  • user-avatar
    Login

    Hourly Weather Tirana

    Today, 23 April, Sunday

    Time Temperature Precipitation Wind Pressure Humidity
    00:00 +5°C° 0 mm 2 mps 755 mmHg 76%
    01:00 +6°C° 0 mm 1 mps 755 mmHg 74%
    02:00 +6°C° 0 mm 1 mps 755 mmHg 73%
    03:00 +6°C° 0 mm 1 mps 755 mmHg 72%
    04:00 +5°C° 0 mm 1 mps 755 mmHg 71%
    05:00 +7°C° 0 mm 2 mps 755 mmHg 64%
    06:00 +9°C° 0 mm 2 mps 755 mmHg 57%
    07:00 +13°C° 0 mm 2 mps 755 mmHg 48%
    08:00 +14°C° 0 mm 2 mps 755 mmHg 47%
    09:00 +15°C° 0 mm 2 mps 755 mmHg 46%
    10:00 +16°C° 0 mm 2 mps 755 mmHg 45%
    11:00 +17°C° 0 mm 2 mps 755 mmHg 45%
    12:00 +18°C° 0 mm 3 mps 755 mmHg 45%
    13:00 +18°C° 0 mm 3 mps 755 mmHg 46%
    14:00 +18°C° 0 mm 3 mps 755 mmHg 48%
    15:00 +17°C° 0 mm 3 mps 755 mmHg 50%
    16:00 +17°C° 0 mm 2 mps 756 mmHg 53%
    17:00 +15°C° 0 mm 2 mps 756 mmHg 62%
    18:00 +12°C° 0 mm 2 mps 756 mmHg 72%
    19:00 +10°C° 0 mm 1 mps 756 mmHg 82%
    20:00 +10°C° 0 mm 1 mps 757 mmHg 82%
    21:00 +9°C° 0 mm 1 mps 758 mmHg 82%
    22:00 +8°C° 0 mm 2 mps 758 mmHg 82%
    23:00 +8°C° 0 mm 2 mps 758 mmHg 81%

    Tomorrow, 24 April, Monday

    Time Temperature Precipitation Wind Pressure Humidity
    00:00 +8°C° 0 mm 2 mps 758 mmHg 81%
    01:00 +7°C° 0 mm 2 mps 758 mmHg 80%
    02:00 +7°C° 0 mm 2 mps 758 mmHg 79%
    03:00 +7°C° 0 mm 3 mps 758 mmHg 78%
    04:00 +7°C° 0 mm 3 mps 758 mmHg 77%
    05:00 +9°C° 0 mm 3 mps 758 mmHg 71%
    06:00 +11°C° 0 mm 3 mps 758 mmHg 66%
    07:00 +13°C° 0 mm 3 mps 758 mmHg 61%
    08:00 +16°C° 0 mm 2 mps 758 mmHg 55%
    09:00 +18°C° 0 mm 2 mps 758 mmHg 49%
    10:00 +21°C° 0 mm 1 mps 758 mmHg 44%
    11:00 +20°C° 0 mm 2 mps 758 mmHg 43%
    12:00 +21°C° 0 mm 2 mps 758 mmHg 43%
    13:00 +21°C° 0 mm 3 mps 758 mmHg 43%
    14:00 +20°C° 0 mm 3 mps 758 mmHg 46%
    15:00 +20°C° 0 mm 2 mps 757 mmHg 49%
    16:00 +19°C° 0 mm 2 mps 757 mmHg 52%
    17:00 +17°C° 0 mm 2 mps 757 mmHg 63%
    18:00 +14°C° 0 mm 2 mps 757 mmHg 75%
    19:00 +12°C° 0 mm 1 mps 757 mmHg 87%
    20:00 +10°C° 0 mm 2 mps 757 mmHg 87%
    21:00 +10°C° 0 mm 2 mps 758 mmHg 87%
    22:00 +10°C° 0 mm 2 mps 758 mmHg 87%
    23:00 +10°C° 0 mm 3 mps 758 mmHg 87%

    Day after tomorrow, 25 April, Tuesday

    Time Temperature Precipitation Wind Pressure Humidity
    00:00 +9°C° 0 mm 3 mps 758 mmHg 87%
    01:00 +9°C° 0 mm 3 mps 757 mmHg 87%
    02:00 +9°C° 0 mm 3 mps 757 mmHg 87%
    03:00 +9°C° 0 mm 3 mps 757 mmHg 87%
    04:00 +9°C° 0 mm 3 mps 757 mmHg 88%
    05:00 +11°C° 0 mm 3 mps 757 mmHg 80%
    06:00 +13°C° 0 mm 3 mps 757 mmHg 73%
    07:00 +16°C° 0 mm 3 mps 757 mmHg 65%
    08:00 +17°C° 0 mm 4 mps 757 mmHg 58%
    09:00 +19°C° 0 mm 4 mps 757 mmHg 50%
    10:00 +20°C° 0 mm 4 mps 757 mmHg 43%
    11:00 +21°C° 0 mm 5 mps 757 mmHg 42%
    12:00 +21°C° 0 mm 5 mps 756 mmHg 40%
    13:00 +22°C° 0 mm 6 mps 756 mmHg 39%
    14:00 +21°C° 0 mm 6 mps 756 mmHg 42%
    15:00 +21°C° 0 mm 6 mps 755 mmHg 46%
    16:00 +20°C° 0 mm 6 mps 755 mmHg 50%
    17:00 +17°C° 0 mm 5 mps 755 mmHg 60%
    18:00 +14°C° 0 mm 5 mps 755 mmHg 70%
    19:00 +12°C° 0 mm 4 mps 755 mmHg 80%
    20:00 +12°C° 0 mm 4 mps 755 mmHg 82%
    21:00 +11°C° 0 mm 4 mps 756 mmHg 84%
    22:00 +10°C° 0 mm 3 mps 756 mmHg 86%
    23:00 +10°C° 0 mm 3 mps 756 mmHg 85%

    26 April, Wednesday

    Time Temperature Precipitation Wind Pressure Humidity
    00:00 +10°C° 0 mm 3 mps 756 mmHg 84%
    01:00 +10°C° 0 mm 3 mps 755 mmHg 84%
    02:00 +10°C° 0 mm 3 mps 755 mmHg 81%
    03:00 +9°C° 0 mm 3 mps 755 mmHg 79%
    04:00 +9°C° 0 mm 3 mps 755 mmHg 77%
    05:00 +11°C° 0 mm 3 mps 755 mmHg 70%
    06:00 +13°C° 0 mm 3 mps 755 mmHg 63%
    07:00 +16°C° 0 mm 3 mps 755 mmHg 56%
    08:00 +18°C° 0 mm 3 mps 754 mmHg 47%
    09:00 +20°C° 0 mm 3 mps 754 mmHg 38%
    10:00 +22°C° 0 mm 3 mps 754 mmHg 30%
    11:00 +22°C° 0 mm 4 mps 754 mmHg 29%
    12:00 +23°C° 0 mm 5 mps 754 mmHg 29%
    13:00 +24°C° 0 mm 6 mps 754 mmHg 28%
    14:00 +23°C° 0 mm 6 mps 753 mmHg 32%
    15:00 +23°C° 0 mm 6 mps 753 mmHg 35%
    16:00 +22°C° 0 mm 6 mps 753 mmHg 39%
    17:00 +20°C° 0 mm 5 mps 753 mmHg 48%
    18:00 +16°C° 0 mm 5 mps 753 mmHg 58%
    19:00 +14°C° 0 mm 4 mps 753 mmHg 67%
    20:00 +13°C° 0 mm 4 mps 754 mmHg 68%
    21:00 +13°C° 0 mm 3 mps 754 mmHg 70%
    22:00 +12°C° 0 mm 3 mps 754 mmHg 71%
    23:00 +12°C° 0 mm 3 mps 754 mmHg 69%

    27 April, Thursday

    Time Temperature Precipitation Wind Pressure Humidity
    00:00 +13°C° 0 mm 3 mps 754 mmHg 67%
    01:00 +13°C° 0 mm 4 mps 754 mmHg 65%
    02:00 +13°C° 0 mm 4 mps 754 mmHg 64%
    03:00 +13°C° 0 mm 4 mps 753 mmHg 63%
    04:00 +13°C° 0 mm 4 mps 753 mmHg 62%
    05:00 +14°C° 0 mm 4 mps 753 mmHg 58%
    06:00 +17°C° 0 mm 4 mps 753 mmHg 55%
    07:00 +19°C° 0 mm 4 mps 753 mmHg 51%
    08:00 +21°C° 0 mm 4 mps 753 mmHg 45%
    09:00 +23°C° 0 mm 4 mps 753 mmHg 39%
    10:00 +26°C° 0 mm 4 mps 753 mmHg 33%
    11:00 +26°C° 0 mm 5 mps 752 mmHg 34%
    12:00 +27°C° 0 mm 6 mps 752 mmHg 34%
    13:00 +27°C° 0 mm 7 mps 752 mmHg 34%
    14:00 +26°C° 0 mm 7 mps 751 mmHg 36%
    15:00 +26°C° 0 mm 7 mps 751 mmHg 38%
    16:00 +24°C° 0 mm 7 mps 751 mmHg 40%
    17:00 +21°C° 0 mm 6 mps 751 mmHg 47%
    18:00 +19°C° 0 mm 6 mps 751 mmHg 55%
    19:00 +15°C° 0 mm 5 mps 752 mmHg 62%
    20:00 +15°C° 0 mm 5 mps 752 mmHg 62%
    21:00 +15°C° 0 mm 4 mps 752 mmHg 61%
    22:00 +16°C° 0 mm 3 mps 752 mmHg 61%
    23:00 +16°C° 0 mm 3 mps 752 mmHg 61%

    28 April, Friday

    Time Temperature Precipitation Wind Pressure Humidity
    00:00 +16°C° 0 mm 3 mps 751 mmHg 60%
    01:00 +16°C° 0 mm 3 mps 751 mmHg 60%
    02:00 +14°C° 0 mm 4 mps 751 mmHg 60%
    03:00 +14°C° 0 mm 4 mps 751 mmHg 60%
    04:00 +14°C° 0 mm 4 mps 751 mmHg 60%
    05:00 +15°C° 0.3 mm 4 mps 751 mmHg 59%
    06:00 +16°C° 0.3 mm 5 mps 751 mmHg 57%
    07:00 +17°C° 0.3 mm 5 mps 751 mmHg 56%
    08:00 +17°C° 0.3 mm 5 mps 751 mmHg 55%
    09:00 +19°C° 0.3 mm 4 mps 751 mmHg 54%
    10:00 +19°C° 0.3 mm 4 mps 750 mmHg 53%
    11:00 +20°C° 0.6 mm 5 mps 750 mmHg 53%
    12:00 +20°C° 0.6 mm 6 mps 750 mmHg 53%
    13:00 +21°C° 0.6 mm 6 mps 750 mmHg 53%
    14:00 +20°C° 2.4 mm 6 mps 750 mmHg 57%
    15:00 +19°C° 2.4 mm 5 mps 750 mmHg 62%
    16:00 +18°C° 2.4 mm 4 mps 750 mmHg 66%
    17:00 +17°C° 2.3 mm 4 mps 750 mmHg 72%
    18:00 +15°C° 2.3 mm 4 mps 750 mmHg 79%
    19:00 +16°C° 2.3 mm 3 mps 750 mmHg 85%
    20:00 +14°C° 2 mm 3 mps 750 mmHg 87%
    21:00 +14°C° 2 mm 3 mps 750 mmHg 89%
    22:00 +14°C° 2 mm 2 mps 750 mmHg 91%
    23:00 +14°C° 2 mm 2 mps 750 mmHg 93%
    Show more